TimeMDT,TemperatureF,Dew PointF,Humidity,Sea Level PressureIn,VisibilityMPH,Wind Direction,Wind SpeedMPH,Gust SpeedMPH,PrecipitationIn,Events,Conditions,WindDirDegrees,DateUTC
12:53 AM,73.0,48.9,42,29.91,10.0,NE,12.7,-,N/A,,Clear,50,2013-06-30 06:53:00
1:53 AM,75.9,48.0,37,29.91,10.0,ENE,16.1,-,N/A,,Clear,60,2013-06-30 07:53:00
2:53 AM,72.0,50.0,46,29.91,10.0,NE,16.1,-,N/A,,Clear,50,2013-06-30 08:53:00
3:53 AM,71.1,50.0,47,29.91,10.0,NE,16.1,-,N/A,,Clear,40,2013-06-30 09:53:00
4:53 AM,69.1,50.0,51,29.93,10.0,NE,15.0,-,N/A,,Clear,50,2013-06-30 10:53:00
5:53 AM,66.0,51.1,59,29.97,10.0,East,4.6,-,N/A,,Clear,80,2013-06-30 11:53:00
6:53 AM,64.0,52.0,65,29.99,10.0,East,10.4,-,N/A,,Clear,90,2013-06-30 12:53:00
7:53 AM,71.1,52.0,51,29.98,10.0,East,11.5,-,N/A,,Clear,90,2013-06-30 13:53:00
8:53 AM,72.0,54.0,53,30.01,10.0,East,12.7,-,N/A,,Clear,100,2013-06-30 14:53:00
9:53 AM,77.0,54.0,45,30.01,10.0,ESE,11.5,-,N/A,,Clear,120,2013-06-30 15:53:00
10:53 AM,81.0,55.0,41,29.99,10.0,SE,6.9,-,N/A,,Clear,130,2013-06-30 16:53:00
11:53 AM,84.9,54.0,34,29.98,10.0,ESE,10.4,-,N/A,,Clear,120,2013-06-30 17:53:00
12:53 PM,89.1,53.1,29,29.96,10.0,ESE,6.9,-,N/A,,Clear,110,2013-06-30 18:53:00
1:53 PM,93.0,52.0,25,29.93,10.0,SE,6.9,-,N/A,,Clear,140,2013-06-30 19:53:00
2:53 PM,96.1,50.0,21,29.91,10.0,Variable,5.8,-,N/A,,Clear,0,2013-06-30 20:53:00
3:53 PM,99.0,42.1,14,29.89,10.0,NW,3.5,-,N/A,,Clear,320,2013-06-30 21:53:00
4:53 PM,99.0,36.0,11,29.87,10.0,Calm,Calm,-,N/A,,Clear,0,2013-06-30 22:53:00
5:53 PM,99.0,37.9,12,29.85,10.0,Calm,Calm,-,N/A,,Clear,0,2013-06-30 23:53:00
6:53 PM,99.0,37.0,12,29.83,10.0,Calm,Calm,-,N/A,,Clear,0,2013-07-01 00:53:00
7:53 PM,95.0,46.0,19,29.83,10.0,Calm,Calm,-,N/A,,Clear,0,2013-07-01 01:53:00
8:53 PM,88.0,48.9,26,29.85,10.0,ESE,4.6,-,N/A,,Clear,120,2013-07-01 02:53:00
9:53 PM,79.0,50.0,36,29.86,10.0,ESE,5.8,-,N/A,,Clear,120,2013-07-01 03:53:00
10:53 PM,79.0,48.9,35,29.87,10.0,East,6.9,-,N/A,,Clear,90,2013-07-01 04:53:00
11:53 PM,77.0,46.0,33,29.88,10.0,East,6.9,-,N/A,,Clear,100,2013-07-01 05:53:00